sat.trackr.live / text

‹ back to catalog

STARLINK-35953

NORAD 66637 · 2025-271W

PAYLOAD ACTIVE UNKNOWN

§ Identity

Operator
Country
US
Launch date
2025-11-23
Launch site
AFWTR
Launch vehicle
Mass (kg)
RCS (m²)

Purposes: comms

External: N2YO · Heavens-Above · Gunter

§ Orbital elements

Epoch: 2026-09-20T10:23:15.191808Z

Period
93.85 min
Inclination
53.1600°
Eccentricity
0.0001131
Mean motion
15.34410154 rev/d
Perigee alt
461.9 km
Apogee alt
463.4 km
Semi-major
6,840.8 km
B*
4.8825e-4
RAAN
310.3414°
Arg perigee
90.6674°
Mean anomaly
269.4458°
Rev number
4,745

§ Raw data

STARLINK-359531 66637U 25271W   26263.43281472  .00016161  00000+0  48825-3 0  99992 66637  53.1600 310.3414 0001131  90.6674 269.4458 15.34410154 47455

JSON: /api/v1/satellites/66637 · /tle

For live sub-satellite position, see the globe view (requires WebGL).

§ Visibility from observer

Set your observer location to see the next 7 days of passes ≥ 10°. The values pass through the URL so the page stays shareable.

No JS? Fill the form by hand. The geolocation button needs JavaScript.